FW7729 Weather Reports


time (UTC)temp
C
wind
direction
speed
KPH
gust
KPH
rain 1hr
cm
rain 24hr
cm
rain mn
cm
humidity
%
barometer
mb
20260504160329 19 181 1.6 0.0 0.00 0.00 0.00 54 1012.9
20260504150756 18 165 1.6 0.0 0.00 0.00 0.00 55 1013.7
20260504150222 18 171 3.2 0.0 0.00 0.00 0.00 54 1013.6
20260504141224 16 154 3.2 0.0 0.00 0.00 0.00 59 1013.6
20260504140650 16 218 0.0 0.0 0.00 0.00 0.00 58 1013.7
20260504130551 12 180 0.0 0.0 0.00 0.00 0.00 68 1014.1
20260504110338 8 181 0.0 0.0 0.00 0.00 0.00 79 1014.7
20260504100227 9 182 0.0 0.0 0.00 0.00 0.00 77 1014.6
20260504090125 10 182 0.0 0.0 0.00 0.00 0.00 75 1014.9
20260504081704 10 182 1.6 0.0 0.00 0.00 0.00 74 1014.9
20260504081130 10 182 0.0 0.0 0.00 0.00 0.00 74 1014.8
20260504080556 10 179 1.6 0.0 0.00 0.00 0.00 75 1014.7
20260504050253 7 285 0.0 0.0 0.00 0.00 0.00 81 1015.5
20260504045719 7 285 0.0 0.0 0.00 0.00 0.00 81 1015.3
20260504045145 7 285 0.0 0.0 0.00 0.00 0.00 81 1015.3
20260504044041 7 285 0.0 0.0 0.00 0.00 0.00 82 1015.4
20260504042937 7 285 0.0 0.0 0.00 0.00 0.00 81 1015.4
20260504042403 7 285 0.0 0.0 0.00 0.00 0.00 80 1015.3
20260504041258 7 285 0.0 0.0 0.00 0.00 0.00 79 1015.3
20260504040725 7 285 0.0 0.0 0.00 0.00 0.00 79 1015.3
20260504040150 7 285 0.0 0.0 0.00 0.00 0.00 79 1015.3
20260504035616 7 285 0.0 0.0 0.00 0.00 0.00 77 1015.3
20260504035042 7 285 0.0 0.0 0.00 0.00 0.00 78 1015.4
20260504034508 7 285 0.0 0.0 0.00 0.00 0.00 77 1015.4
20260504033404 7 285 0.0 0.0 0.00 0.00 0.00 79 1015.4
20260504032830 7 285 0.0 0.0 0.00 0.00 0.00 79 1015.3
20260504031726 7 285 0.0 0.0 0.00 0.00 0.00 77 1015.2
20260504030052 7 285 0.0 0.0 0.00 0.00 0.00 78 1015.2
20260504024948 8 285 0.0 0.0 0.00 0.00 0.00 76 1015.1
20260504024414 8 285 0.0 0.0 0.00 0.00 0.00 76 1015.1
20260504023840 8 285 0.0 0.0 0.00 0.00 0.00 76 1015.0
20260504023306 8 285 0.0 0.0 0.00 0.00 0.00 76 1015.0
20260504022202 8 285 0.0 0.0 0.00 0.00 0.00 74 1015.0
20260504021628 8 285 0.0 0.0 0.00 0.00 0.00 72 1015.0
20260504021054 8 285 0.0 0.0 0.00 0.00 0.00 70 1014.9
20260504015950 9 285 0.0 0.0 0.00 0.00 0.00 71 1014.9
20260504013746 10 285 0.0 0.0 0.00 0.00 0.00 68 1014.6
20260504011541 10 285 0.0 0.0 0.00 0.00 0.00 65 1014.5
20260504011007 10 285 0.0 0.0 0.00 0.00 0.00 66 1014.5
20260504005903 11 285 0.0 0.0 0.00 0.00 0.00 65 1014.5
20260504005329 11 285 0.0 0.0 0.00 0.00 0.00 64 1014.4
20260504004225 11 285 0.0 0.0 0.00 0.00 0.00 61 1014.2
20260504003651 12 285 0.0 0.0 0.00 0.00 0.00 61 1014.3
20260504002547 12 293 0.0 0.0 0.00 0.00 0.00 58 1014.2
20260504001443 13 293 0.0 0.0 0.00 0.00 0.00 56 1014.1
20260504000909 13 293 0.0 0.0 0.00 0.00 0.00 55 1014.0
20260504000335 13 293 0.0 0.0 0.00 0.00 0.00 54 1014.0
20260503235801 13 293 0.0 0.0 0.00 0.00 0.00 53 1014.0
20260503235227 14 293 0.0 0.0 0.00 0.00 0.00 53 1013.9
20260503234653 15 293 0.0 0.0 0.00 0.00 0.00 53 1013.9
20260503233549 15 293 0.0 0.0 0.00 0.00 0.00 52 1013.9
20260503231915 15 293 0.0 0.0 0.00 0.00 0.00 47 1013.7
20260503231341 15 293 0.0 0.0 0.00 0.00 0.00 47 1013.7
20260503230807 15 293 0.0 0.0 0.00 0.00 0.00 46 1013.6
20260503225702 15 332 1.6 0.0 0.00 0.00 0.00 46 1013.7
20260503224559 15 260 1.6 0.0 0.00 0.00 0.00 46 1013.6
20260503224024 16 276 0.0 0.0 0.00 0.00 0.00 47 1013.6
20260503223450 16 276 0.0 0.0 0.00 0.00 0.00 46 1013.6
20260503222916 16 276 0.0 0.0 0.00 0.00 0.00 46 1013.6
20260503222342 16 276 0.0 0.0 0.00 0.00 0.00 47 1013.6
20260503221808 16 276 1.6 0.0 0.00 0.00 0.00 46 1013.8
20260503220704 16 283 0.0 0.0 0.00 0.00 0.00 46 1013.8
20260503220130 15 304 0.0 0.0 0.00 0.00 0.00 47 1013.8
20260503214456 15 295 1.6 0.0 0.00 0.00 0.00 45 1013.7
20260503213348 15 328 1.6 0.0 0.00 0.00 0.00 46 1013.9
20260503212244 15 223 3.2 0.0 0.00 0.00 0.00 46 1013.9
20260503211140 15 297 1.6 0.0 0.00 0.00 0.00 46 1014.0
20260503210606 15 299 1.6 0.0 0.00 0.00 0.00 47 1014.0
20260503210032 15 213 1.6 0.0 0.00 0.00 0.00 49 1013.8
20260503205458 15 295 1.6 0.0 0.00 0.00 0.00 46 1014.1
20260503204924 15 281 3.2 0.0 0.00 0.00 0.00 46 1014.3
20260503204350 15 231 4.8 0.0 0.00 0.00 0.00 46 1014.0
20260503203816 15 354 0.0 0.0 0.00 0.00 0.00 45 1013.9
20260503203241 15 286 3.2 0.0 0.00 0.00 0.00 45 1014.1
20260503202708 15 260 1.6 0.0 0.00 0.00 0.00 47 1014.0
20260503202133 15 302 3.2 0.0 0.00 0.00 0.00 48 1014.2
20260503201559 15 288 0.0 0.0 0.00 0.00 0.00 49 1014.3
20260503200455 14 320 1.6 0.0 0.00 0.00 0.00 48 1014.5
20260503195921 14 311 1.6 0.0 0.00 0.00 0.00 48 1014.6
20260503193717 14 339 0.0 0.0 0.00 0.00 0.00 48 1014.8
20260503193143 14 325 1.6 0.0 0.00 0.00 0.00 49 1015.0
20260503192609 14 337 3.2 0.0 0.00 0.00 0.00 51 1015.3
20260503191505 14 328 1.6 0.0 0.00 0.00 0.00 48 1015.3
20260503190931 14 289 4.8 0.0 0.00 0.00 0.00 49 1015.4
20260503185826 13 247 6.4 0.0 0.00 0.00 0.00 50 1015.5
20260503184722 13 228 4.8 0.0 0.00 0.00 0.00 50 1015.6
20260503183618 13 270 3.2 0.0 0.00 0.00 0.00 52 1015.7
20260503182514 13 354 3.2 0.0 0.00 0.00 0.00 52 1015.7
20260503181940 13 255 6.4 0.0 0.00 0.00 0.00 51 1015.9
20260503181406 13 269 1.6 0.0 0.00 0.00 0.00 54 1015.8
20260503180832 13 256 1.6 0.0 0.00 0.00 0.00 52 1015.8
20260503180258 13 259 3.2 0.0 0.00 0.00 0.00 52 1015.9
20260503175724 13 226 6.4 0.0 0.00 0.00 0.00 52 1016.0
20260503175150 13 343 1.6 0.0 0.00 0.00 0.00 53 1016.0
20260503174046 12 287 3.2 0.0 0.00 0.00 0.00 52 1016.1
20260503173512 13 262 3.2 0.0 0.00 0.00 0.00 53 1016.2
20260503171256 12 291 3.2 0.0 0.00 0.00 0.00 54 1016.2
20260503170722 12 275 4.8 1.6 0.00 0.00 0.00 53 1016.2
20260503170148 12 247 1.6 0.0 0.00 0.00 0.00 55 1016.3